STARLINK-3083, 49158

Orbit data source: Space-Track

STARLINK-3083, 49158 is a payload satellite owned by SpaceX/Seattle (US) in LEO that was launched on Tue, 14 Sep 2021 UTC via an FALCON 9 launch vehicle from the Air Force Western Test Range (AFWTR). Payload-class satellites include a variety of spacecraft equipped with specific instruments for various scientific and technological missions. These include communications satellites like Starlink; space stations such as the ISS; scientific satellites like the Hubble; Earth observation satellites from companies like Planet Labs, Umbra, and HawkEye 360; GPS; miniature CubeSats for education and research; and military/defense satellites.

Loading next visibility...
Identifier
49158, 2021-082AE
Orbit
LEO
Country
Flag of USUS
Related business
Manufacturer
SpaceX/Seattle
Mission
Partially operational Commercial Communications
Bus & Motor
STARLINK, Unknown motor
Mass
297 kg wet, ~275 kg dry
Launch date (UTC)
2021-09-14 (5 years ago)
Launch vehicle
FALCON 9
Launch site
Air Force Western Test Range (AFWTR)
Object type
Payload
Rocket body
Debris
Shape & HBR
Box + 1 Pan, 10.1 m
Radar Cross Section
13.562 m², Large (>1 m²)

Expand to show TLE details & history
Last TLE update: 5 hours ago

TLE from 5 hours ago
0 STARLINK-3083
1 49158U 21082AE  26125.79252168  .00060751  00000-0  47075-3 0  9991
2 49158  69.9653  13.2548 0004411 193.1875 166.9207 15.71528691259006
Epoch: 2026-05-05T19:01Z
TLE epoch observation values (Epoch: 2026-05-05T19:01:13.873Z)
Latitude
0.00002°
Longitude
-135.71528°
Altitude
359.92 km
Speed
7.692 km/s
True Right ascension
00h 53m 01s
True Declination
0° 00' 00"
Sunlit
Object was in daylight at epoch
Visualization orbit readout
Latitude
Unknown
Longitude
Unknown
Altitude
Unknown
Speed
Unknown
Apparent Right ascension
Unknown
Apparent Declination
Unknown
Sunlit
N/A
Visualization observer readout
Local Sidereal Time
08:06:53
Azimuth
Unknown
Elevation
Unknown
Doppler factor
Unknown
Orbital elements
Apogee altitude
355.382 km
Perigee altitude
349.444 km
Semi-major axis
6,730.55 km
Eccentricity
0.00044
Inclination
69.9653°
RAAN
13.2548°
Arg. of periapsis
193.1875°
True anomaly
166.93213°
Mean anomaly
166.9207°
Eccentric anomaly
166.92642°
Mean motion
3.93068 °/min
Orbital period
91.59 mins
BSTAR
0.00047075
Loading maneuver chart data...
Computing Atmospheric mass density...
Loading historical data...
Loading historical data...
Loading historical data...
Loading historical data...
Loading historical data...
Loading historical data...
Loading historical data...

Documentation

Showing up to 5 results
|